Flag for Netherlands Weather past 2 weeks in Kralendijk (Bonaire), Netherlands

Now
84 °F

Scattered clouds.


Feels Like: 94 °F
Forecast: 83 / 90 °F
Wind: 14 mph from East

Location: Flamingo Airport - Bonaire

Current Time: Oct 1, 2014 at 9:04:11 AM

Latest Report: Oct 1, 2014 at 8:00 AM


Visibility: N/A

Pressure: 29.89 "Hg

Humidity: 79%

Dew point: 77 °F

Location of Kralendijk (Bonaire)Location

Historic Weather in Kralendijk (Bonaire) — Graph

°F

Kralendijk (Bonaire) temperature yesterday

Maximum temperature yesterday: 90 °F (at 11:00 AM)
Minimum temperature yesterday: 82 °F (at 1:00 AM)
Average temperature yesterday: 86 °F

Past Weeks' High & Low Weather Summary

 TemperatureHumidityPressure
High91 °F (Sep 26, 12:00 PM)94% (Sep 21, 6:00 AM)29.98 "Hg (Sep 21, 6:00 AM)
Low77 °F (Sep 21, 6:00 AM)56% (Sep 27, 1:00 PM)29.74 "Hg (Sep 26, 4:00 PM)
Average85 °F75%29.86 "Hg
* Reported Sep 16 7:00 AM — Oct 1 7:00 AM, Kralendijk (Bonaire), Weather by CustomWeather, © 2014

Note: Actual official high and low records may vary slightly from our data, if they occured in-between our weather recording intervals... More about our weather records

Advertising

Kralendijk (Bonaire) weather history for previous 24 hours

 ConditionsComfort  
Time TempWeatherWind HumidityBarometerVisibility
7:00 AM
Oct 1
82 °FWarm.14 mph84%29.89 "HgN/A
6:00 AM82 °FWarm.16 mph79%29.86 "HgN/A
3:00 AM82 °FWarm.17 mph84%29.86 "HgN/A
2:00 AM84 °FWarm.17 mph79%29.89 "HgN/A
1:00 AM84 °FWarm.15 mph79%29.89 "HgN/A
12:00 AM84 °FWarm.17 mph79%29.92 "HgN/A
10:00 PM
Sep 30
84 °FWarm.17 mph79%29.89 "HgN/A
9:00 PM84 °FWarm.15 mph79%29.89 "HgN/A
8:00 PM84 °FWarm.18 mph79%29.86 "HgN/A
7:00 PM84 °FWarm.18 mph79%29.83 "HgN/A
6:00 PM86 °FScattered clouds.20 mph70%29.83 "HgN/A
4:00 PM88 °FScattered clouds.18 mph70%29.83 "HgN/A
3:00 PM90 °FScattered clouds.21 mph67%29.83 "HgN/A
2:00 PM90 °FHot.22 mph67%29.86 "HgN/A
1:00 PMN/A18 mphN/AN/AN/A
12:00 PM90 °FScattered clouds.20 mph67%29.89 "HgN/A
11:00 AM90 °FScattered clouds.20 mph67%29.92 "HgN/A
10:00 AM88 °FScattered clouds.20 mph70%29.92 "HgN/A
9:00 AM86 °FScattered clouds.20 mph75%29.92 "HgN/A
Weather by CustomWeather, © 2014

See weather overviewHow to use our weather pages